[[{"header":{"parameterUnit":"m.s-1","parameterCategory":1,"la1":30.2991,"la2":30.254,"lo1":-89.0895,"lo2":-89.0444,"dy":0.0017,"dx":0.0017,"nx":28,"ny":28,"refTime":"2024-03-29T09:00:00:Z","depth":0,"parameterNumber":2,"parameterNumberName":"U-component_of_WINDS"},"data":[0,0,0,0,0,0,0,0,0,0,0,0,0,0,0,0,0,0,0,0,0,0,0,0,0,0,0,0,0,0,0,0,0,0,0,0,0,0,0,0,0,0,0,0,0,0,0,0,0,0,0,0,0,0,0,0,0,0,-1.2947,-1.2948,0,-1.2985,-1.2986,-1.2986,-1.299,-1.2989,-1.2989,-1.2988,-1.3028,-1.3029,-1.303,0,0,0,0,0,0,0,0,0,0,0,0,0,-1.288,-1.2881,-1.2947,-1.2948,-1.2948,-1.2985,-1.2986,-1.2986,-1.299,-1.2989,-1.2989,-1.2988,-1.3027,-1.3029,-1.303,0,0,0,0,0,0,0,0,0,0,0,0,0,-1.2912,-1.2881,-1.2947,-1.2955,-1.2956,-1.2985,-1.2986,-1.2986,-1.299,-1.2989,-1.2989,-1.2988,-1.3027,-1.3029,-1.3031,-1.3056,0,0,-1.3037,-1.3038,0,0,0,0,0,0,0,0,-1.291,-1.2915,-1.2953,-1.2954,-1.2955,-1.2982,-1.2976,-1.301,-1.299,-1.2977,-1.2988,-1.2988,-1.3013,-1.3016,-1.3025,-1.3058,-1.3059,-1.3037,-1.3039,-1.304,-1.304,0,0,0,0,0,0,0,-1.2908,-1.2913,-1.2962,-1.2954,-1.2955,-1.2956,-1.296,-1.2982,-1.2998,-1.2978,-1.2978,-1.2983,-1.3013,-1.3022,-1.3025,-1.306,-1.3037,-1.3039,-1.3041,-1.3041,-1.3116,-1.3116,0,0,0,0,0,0,-1.2904,-1.2911,-1.2961,-1.2963,-1.2931,-1.2958,-1.2962,-1.2974,-1.2998,-1.3001,-1.2983,-1.2983,-1.3019,-1.3023,-1.3027,-1.3058,-1.304,-1.3042,-1.3043,-1.3115,-1.3116,-1.3116,0,0,0,0,0,0,-1.2903,-1.2909,-1.296,-1.2938,-1.2944,-1.296,-1.2973,-1.2975,-1.2984,-1.3001,-1.3004,-1.2989,-1.3019,-1.3024,-1.3049,-1.3059,-1.3042,-1.3044,-1.3114,-1.3115,-1.3116,-1.312,0,0,0,0,0,0,-1.2901,-1.2908,-1.2918,-1.2938,-1.2945,-1.298,-1.2973,-1.2976,-1.2988,-1.2988,-1.3008,-1.3011,-1.3019,-1.3045,-1.3051,-1.3062,-1.3046,-1.3113,-1.3115,-1.3116,-1.3119,-1.3121,-1.3123,0,0,0,0,0,-1.2899,-1.2917,-1.2918,-1.2924,-1.2957,-1.2981,-1.2985,-1.2994,-1.2989,-1.2998,-1.301,-1.301,-1.3057,-1.3048,-1.3054,-1.3066,-1.3112,-1.3114,-1.3116,-1.3118,-1.3121,-1.3123,0,0,0,0,0,0,-1.2899,-1.292,-1.2921,-1.2947,-1.2962,-1.2982,-1.2994,-1.2996,-1.3013,-1.3012,-1.3022,-1.3027,-1.3051,-1.3061,-1.305,-1.3091,-1.3084,-1.3087,-1.3084,-1.3087,-1.3089,-1.3086,-1.3048,0,0,0,0,0,-1.2901,-1.2919,-1.2937,-1.2958,-1.2965,-1.2978,-1.2989,-1.2994,-1.301,-1.3017,-1.303,-1.3046,-1.3064,-1.3076,-1.3094,-1.312,-1.3125,-1.3132,-1.3134,-1.3135,-1.3137,-1.3152,-1.3156,-1.3122,-1.3122,-1.3122,0,0,-1.2908,-1.2922,-1.2932,-1.2958,-1.297,-1.2988,-1.2984,-1.3003,-1.3016,-1.302,-1.3044,-1.3054,-1.3072,-1.3098,-1.311,-1.3107,-1.3148,-1.3137,-1.3138,-1.314,-1.3154,-1.3158,-1.316,-1.3123,-1.3123,-1.3122,0,0,-1.2929,-1.2941,-1.296,-1.2972,-1.2991,-1.2999,-1.3004,-1.3023,-1.303,-1.3054,-1.3057,-1.3074,-1.3105,-1.3118,-1.3129,-1.3155,-1.3156,-1.316,-1.317,-1.3185,-1.3187,-1.319,-1.3199,-1.3202,-1.3162,-1.3162,-1.3162,0,-1.2934,-1.2961,-1.2969,-1.2989,-1.3,-1.3004,-1.3023,-1.3035,-1.3059,-1.3067,-1.3063,-1.3102,-1.3115,-1.3144,-1.315,-1.3159,-1.3164,-1.3158,-1.3186,-1.3189,-1.3191,-1.32,-1.3204,-1.3163,-1.3163,-1.3163,-1.3163,0,-1.2967,-1.2986,-1.2999,-1.3022,-1.3035,-1.3054,-1.3065,-1.3077,-1.3081,-1.3091,-1.3115,-1.3131,-1.3152,-1.3159,-1.3163,-1.3189,-1.3186,-1.3184,-1.3177,-1.3195,-1.3203,-1.3207,-1.3163,-1.3163,-1.3163,-1.3163,0,0,-1.299,-1.3016,-1.3021,-1.3031,-1.3052,-1.3067,-1.3086,-1.3107,-1.3117,-1.3133,-1.315,-1.3176,-1.3175,-1.3187,-1.3193,-1.3205,-1.3225,-1.3202,-1.3202,-1.3206,-1.3254,-1.3256,-1.326,-1.3226,-1.3227,-1.3227,-1.3253,0,-1.3013,-1.3047,-1.3055,-1.3085,-1.3102,-1.3106,-1.3123,-1.3138,-1.3147,-1.3163,-1.3174,-1.3192,-1.3189,-1.3196,-1.3209,-1.322,-1.3235,-1.3218,-1.3242,-1.3243,-1.3237,-1.3264,-1.3266,-1.3289,-1.3256,-1.3257,-1.3257,0,-1.3045,-1.3062,-1.3093,-1.3111,-1.3119,-1.3134,-1.3154,-1.3169,-1.3186,-1.3192,-1.3205,-1.321,-1.323,-1.3222,-1.3251,-1.3239,-1.325,-1.3257,-1.3258,-1.326,-1.3251,-1.3268,-1.3297,-1.33,-1.3263,-1.3262,-1.3262,0,-1.3058,-1.3088,-1.3111,-1.312,-1.3142,-1.3153,-1.3162,-1.3179,-1.319,-1.3207,-1.3215,-1.3235,-1.3245,-1.326,-1.327,-1.3263,-1.3298,-1.329,-1.3303,-1.3303,-1.3311,-1.331,-1.3342,-1.3317,-1.3317,-1.3317,-1.3317,0,-1.3084,-1.3103,-1.3117,-1.3131,-1.3153,-1.3162,-1.3183,-1.3193,-1.3208,-1.3224,-1.3228,-1.3243,-1.3255,-1.3272,-1.328,-1.3302,-1.3307,-1.3312,-1.3314,-1.3312,-1.3311,-1.3319,-1.3318,-1.3318,-1.3317,-1.3317,-1.3317,0,-1.3102,-1.3113,-1.3138,-1.3157,-1.3162,-1.3177,-1.3193,-1.3207,-1.3216,-1.3237,-1.3242,-1.3256,-1.3276,-1.3287,-1.3313,-1.3318,-1.3343,-1.3344,-1.3337,-1.3338,-1.335,-1.3349,-1.3388,-1.3394,-1.3365,-1.3365,-1.3366,0,-1.3118,-1.3133,-1.3153,-1.3164,-1.3174,-1.3192,-1.3204,-1.3213,-1.3226,-1.3246,-1.3257,-1.3278,-1.3294,-1.3326,-1.3339,-1.3358,-1.336,-1.3372,-1.3363,-1.336,-1.336,-1.3359,-1.3361,-1.3374,-1.3374,-1.3374,-1.3374,0,-1.3145,-1.3149,-1.3166,-1.3185,-1.3199,-1.3214,-1.323,-1.3238,-1.325,-1.3264,-1.3284,-1.3297,-1.3323,-1.3343,-1.3363,-1.3374,-1.3376,-1.3377,-1.3381,-1.3379,-1.3375,-1.3378,-1.3342,-1.3376,-1.3376,-1.3376,-1.3376,-1.3376,-1.3163,-1.3176,-1.3193,-1.3211,-1.3224,-1.3238,-1.3252,-1.3262,-1.3279,-1.3301,-1.3305,-1.3327,-1.3343,-1.3371,-1.3382,-1.3399,-1.3397,-1.3402,-1.3404,-1.3405,-1.3406,-1.3372,-1.3403,-1.3403,-1.3403,-1.3402,-1.3402,0,-1.3191,-1.3201,-1.3218,-1.3239,-1.3254,-1.3254,-1.3271,-1.3283,-1.3302,-1.3317,-1.3334,-1.3357,-1.3376,-1.3391,-1.3411,-1.3422,-1.3423,-1.3427,-1.3426,-1.3428,-1.3407,-1.3401,-1.3425,-1.3425,-1.3425,-1.3425,-1.3425,-1.3425,-1.3207,-1.3229,-1.3235,-1.3264,-1.3275,-1.3295,-1.3305,-1.3318,-1.333,-1.3356,-1.3372,-1.3381,-1.3396,-1.3417,-1.3435,-1.3439,-1.3446,-1.3449,-1.3453,-1.3432,-1.343,-1.3428,-1.3423,-1.345,-1.345,-1.3473,-1.3473,-1.3473]},{"header":{"parameterUnit":"m.s-1","parameterCategory":1,"la1":30.2991,"la2":30.254,"lo1":-89.0895,"lo2":-89.0444,"dy":0.0017,"dx":0.0017,"nx":28,"ny":28,"refTime":"2024-03-29T09:00:00:Z","depth":0,"parameterNumber":3,"parameterNumberName":"V-component_of_WINDS"},"data":[0,0,0,0,0,0,0,0,0,0,0,0,0,0,0,0,0,0,0,0,0,0,0,0,0,0,0,0,0,0,0,0,0,0,0,0,0,0,0,0,0,0,0,0,0,0,0,0,0,0,0,0,0,0,0,0,0,0,4.6702,4.6703,0,4.6817,4.6818,4.6819,4.6798,4.6796,4.6794,4.6792,4.6905,4.691,4.6915,0,0,0,0,0,0,0,0,0,0,0,0,0,4.6459,4.6464,4.6702,4.6703,4.6705,4.6817,4.6818,4.682,4.6798,4.6796,4.6794,4.6791,4.6904,4.6909,4.6915,0,0,0,0,0,0,0,0,0,0,0,0,0,4.6568,4.6465,4.6702,4.6708,4.6709,4.6816,4.6818,4.682,4.6799,4.6796,4.6793,4.679,4.6902,4.6909,4.6916,4.7023,0,0,4.6939,4.6942,0,0,0,0,0,0,0,0,4.6562,4.6577,4.6705,4.6707,4.671,4.679,4.6774,4.6888,4.68,4.6765,4.6792,4.6789,4.6869,4.6879,4.6907,4.7028,4.7033,4.6939,4.6944,4.6947,4.6949,0,0,0,0,0,0,0,4.6555,4.6572,4.6747,4.6707,4.671,4.6703,4.6715,4.6796,4.6832,4.6768,4.6766,4.6781,4.687,4.69,4.691,4.7035,4.6939,4.6946,4.695,4.6953,4.7248,4.7251,0,0,0,0,0,0,4.6546,4.6566,4.6743,4.6751,4.6627,4.671,4.6724,4.6767,4.6832,4.6839,4.6783,4.6779,4.6889,4.6901,4.6913,4.7042,4.6947,4.6954,4.6958,4.7244,4.7249,4.7252,0,0,0,0,0,0,4.6541,4.6562,4.6739,4.6658,4.668,4.6718,4.6767,4.6771,4.6802,4.6843,4.6849,4.6808,4.6887,4.6903,4.6996,4.7045,4.6957,4.6964,4.724,4.7246,4.725,4.73,0,0,0,0,0,0,4.6534,4.656,4.6602,4.6659,4.6685,4.6821,4.677,4.6776,4.6815,4.6811,4.6868,4.6874,4.6886,4.6985,4.7003,4.7054,4.6969,4.7236,4.7243,4.7249,4.7294,4.7306,4.7317,0,0,0,0,0,4.6525,4.6611,4.6604,4.6626,4.6738,4.6824,4.6838,4.6851,4.6819,4.6861,4.6888,4.6873,4.7037,4.6995,4.7015,4.7069,4.7233,4.7241,4.7248,4.7289,4.7304,4.7316,0,0,0,0,0,0,4.6557,4.6618,4.6612,4.6719,4.6767,4.682,4.6873,4.6866,4.6923,4.6916,4.6928,4.6941,4.7035,4.7061,4.7013,4.7175,4.713,4.7143,4.7154,4.7169,4.718,4.7171,4.6976,0,0,0,0,0,4.6576,4.6643,4.6692,4.6781,4.6806,4.6836,4.6873,4.6879,4.6928,4.6948,4.6981,4.7028,4.7091,4.7131,4.7191,4.7298,4.7309,4.7345,4.7356,4.7365,4.7375,4.7433,4.7449,4.7277,4.7277,4.7277,0,0,4.6617,4.6659,4.67,4.6789,4.6826,4.6893,4.6853,4.6925,4.6974,4.6958,4.7048,4.7075,4.7128,4.7228,4.7274,4.7252,4.7425,4.7375,4.7382,4.7387,4.7442,4.7458,4.7473,4.7283,4.7282,4.7281,0,0,4.6725,4.6764,4.6843,4.6882,4.694,4.6959,4.6978,4.7033,4.705,4.7141,4.7131,4.7188,4.7296,4.7334,4.7367,4.749,4.7478,4.7509,4.7567,4.7623,4.7637,4.7649,4.7691,4.7707,4.7519,4.7519,4.7519,0,4.6768,4.687,4.6883,4.6957,4.6996,4.6987,4.7065,4.7102,4.7176,4.7202,4.7178,4.7312,4.7347,4.7456,4.7486,4.7514,4.7534,4.7502,4.7634,4.7646,4.7657,4.7698,4.7714,4.7522,4.7522,4.7522,4.7521,0,4.6919,4.6989,4.7045,4.7119,4.7164,4.724,4.7264,4.7308,4.7309,4.7331,4.7423,4.7465,4.7532,4.7559,4.7561,4.7668,4.7653,4.7631,4.7586,4.7677,4.7715,4.7731,4.7527,4.7526,4.7525,4.7524,0,0,4.7049,4.713,4.715,4.7183,4.7246,4.73,4.7375,4.7443,4.748,4.7531,4.7593,4.7684,4.7665,4.7703,4.7709,4.7758,4.7852,4.7731,4.7732,4.7751,4.7971,4.7986,4.8004,4.7845,4.7848,4.785,4.7966,0,4.7163,4.7296,4.7311,4.7429,4.7494,4.7486,4.7551,4.7596,4.7618,4.7675,4.7698,4.7762,4.7733,4.7755,4.7804,4.783,4.7896,4.7822,4.79,4.7903,4.7887,4.8024,4.804,4.8147,4.7981,4.7984,4.7985,0,4.7313,4.737,4.7495,4.7549,4.7577,4.7635,4.7698,4.7753,4.7803,4.7816,4.7859,4.7858,4.7934,4.7887,4.799,4.794,4.7973,4.7991,4.7995,4.8002,4.7949,4.8033,4.8182,4.8198,4.8009,4.8008,4.8006,0,4.7394,4.7502,4.7591,4.7619,4.7685,4.7726,4.7755,4.7803,4.7842,4.7897,4.7923,4.7985,4.8019,4.8066,4.8082,4.8047,4.8184,4.8139,4.8195,4.8195,4.8224,4.8221,4.8378,4.8247,4.8246,4.8246,4.8246,0,4.7518,4.7595,4.7628,4.7683,4.7768,4.7784,4.7867,4.7894,4.7936,4.7995,4.7992,4.8046,4.8065,4.8122,4.8135,4.8218,4.8233,4.8244,4.8246,4.8244,4.8242,4.8265,4.8257,4.825,4.825,4.8249,4.8248,0,4.7623,4.7649,4.7745,4.78,4.7815,4.7876,4.7922,4.7973,4.7995,4.8069,4.8087,4.812,4.8187,4.8208,4.8289,4.8298,4.8394,4.839,4.8378,4.8378,4.8432,4.8427,4.8609,4.8633,4.8486,4.8487,4.8489,0,4.77,4.7759,4.7821,4.7861,4.7892,4.7955,4.7996,4.8013,4.8056,4.8118,4.8162,4.8229,4.8283,4.8391,4.8421,4.8483,4.8479,4.8539,4.8488,4.8484,4.8479,4.8475,4.8481,4.8548,4.855,4.8551,4.8552,0,4.7834,4.7844,4.7904,4.7969,4.8018,4.8069,4.8118,4.815,4.8174,4.8222,4.8291,4.8334,4.8417,4.8483,4.8546,4.8573,4.8567,4.8568,4.8584,4.8581,4.8571,4.8577,4.8403,4.8563,4.8562,4.8561,4.8561,4.856,4.7927,4.7979,4.8031,4.8097,4.8136,4.8182,4.8234,4.8262,4.8321,4.8391,4.8397,4.8472,4.852,4.8604,4.8635,4.8693,4.8675,4.8699,4.8705,4.871,4.8714,4.8563,4.8704,4.8704,4.8704,4.8703,4.8703,0,4.806,4.8093,4.8154,4.8224,4.8276,4.8267,4.832,4.8364,4.843,4.8477,4.8531,4.861,4.8674,4.871,4.8774,4.8813,4.8811,4.8829,4.8825,4.8832,4.8726,4.8706,4.8829,4.8829,4.8829,4.8829,4.8829,4.8829,4.8135,4.8223,4.8238,4.8344,4.8376,4.8451,4.8482,4.8524,4.8561,4.8651,4.8705,4.8728,4.877,4.8836,4.8894,4.8903,4.8926,4.8945,4.8952,4.8852,4.8839,4.8827,4.8808,4.8951,4.8951,4.9053,4.9054,4.9054]}]]